Location: Dumpton Point
(51.3500°N, 1.4433°E)
Time: 16:57:58
(UTC+00:00)

A-11 Canister half - Visible Passes

Search period start: 24 September 2022 00:00
Search period end: 04 October 2022 00:00
Orbit: 1524 x 1684 km, 47.3° (Epoch: 23 September)

Date Brightness Start Highest point End Pass type
(mag) Time Alt. Az. Time Alt. Az. Time Alt. Az.
24 Sep 9.2 18:32:46 10° SW 18:41:54 59° SSE 18:51:12 10° E visible
24 Sep 9.0 20:36:59 10° W 20:46:26 70° S 20:49:28 48° ESE visible
24 Sep 9.7 22:41:40 10° W 22:47:44 39° WSW 22:47:44 39° WSW visible
25 Sep 9.2 18:11:09 10° SW 18:20:15 58° SSE 18:29:37 10° E visible
25 Sep 9.0 20:15:20 10° W 20:24:44 71° S 20:28:40 41° ESE visible
25 Sep 9.5 22:20:01 10° W 22:26:56 44° WSW 22:26:56 44° WSW visible
26 Sep 9.0 19:53:41 10° W 20:03:04 71° S 20:07:52 34° ESE visible
26 Sep 9.4 21:58:20 10° W 22:06:08 49° SW 22:06:08 49° SW visible
27 Sep 10.9 00:03:53 10° W 00:04:24 11° W 00:04:24 11° W visible
27 Sep 9.0 19:32:01 10° W 19:41:23 71° S 19:47:05 28° ESE visible
27 Sep 9.2 21:36:39 10° W 21:45:21 53° SW 21:45:21 53° SW visible
27 Sep 10.8 23:42:06 10° W 23:43:37 14° W 23:43:37 14° W visible
28 Sep 9.1 19:10:21 10° W 19:19:42 71° S 19:26:19 23° ESE visible
28 Sep 9.1 21:15:00 10° W 21:24:10 55° SSW 21:24:35 54° SSW visible
28 Sep 10.7 23:20:21 10° W 23:22:51 17° W 23:22:51 17° W visible
29 Sep 9.1 18:48:42 10° W 18:58:01 71° S 19:05:34 18° E visible
29 Sep 9.1 20:53:20 10° W 21:02:31 56° SSW 21:03:51 52° S visible
29 Sep 10.5 22:58:36 10° W 23:02:07 20° WSW 23:02:07 20° WSW visible
30 Sep 9.1 18:27:03 10° WSW 18:36:21 70° S 18:44:51 14° E visible
30 Sep 9.2 20:31:39 10° W 20:40:51 57° SSW 20:43:08 48° SSE visible
30 Sep 10.4 22:36:51 10° W 22:41:24 23° WSW 22:41:24 23° WSW visible
01 Oct 9.2 18:05:23 10° WSW 18:14:40 70° S 18:24:09 10° E visible
01 Oct 9.2 20:10:00 10° W 20:19:11 58° SSW 20:22:25 42° SSE visible
01 Oct 10.2 22:15:08 10° W 22:20:42 27° WSW 22:20:42 27° WSW visible
02 Oct 9.2 17:43:45 10° WSW 17:53:00 70° S 18:02:32 10° E visible
02 Oct 9.2 19:48:19 10° W 19:57:30 59° SSW 20:01:46 35° SE visible
02 Oct 10.1 21:53:24 10° W 22:00:02 29° SW 22:00:02 29° SW visible
03 Oct 9.2 19:26:39 10° W 19:35:51 60° SSW 19:41:08 29° SE visible
03 Oct 9.9 21:31:41 10° W 21:39:25 31° SW 21:39:25 31° SW visible
